www.pogodaiklimat.ru

Погода и климат >> Архив погоды >> Россия >> Приморский край >> Терней


ПОГОДА в Тернее

  • Прогноз погоды в Тернее
  • Монитор погоды в Тернее
  • Климат города

АРХИВ ПОГОДЫ в Тернее

Время (UTC), дата Ветер
(напр.,м/с)
 
Видим.   Явления Облачность Т
(С)
Тd
(С)
f
(%)
Тe
(С)
Тes
(С)
Комфортность P
(гПа)
Po
(гПа)
Тmin
(С)
Tmax
(С)
R
(мм)
R24
(мм)
S
(см)
06 23.04 ЮВ 4 50 км 6/4 300 м
[St Ci fib]
+4.9 -0.2 70 +1 +4 1019.9 1012.2
09 23.04 ЮВ 3 50 км 10/10 300 м
[St]
+3.1 -0.9 75 -1 -1 1020.7 1013.0 +6.0
12 23.04 ЮВ 2 20 км 10/10 300 м
[St]
+2.7 -0.2 81 -0 -0 1022.4 1014.6
15 23.04 ЮВ 1 20 км 10/10 300 м
[St]
+2.7 0.0 82 +1 +1 1022.7 1014.9
18 23.04 ЮВ 1 4000 м слабый дождь 10/10 200 м
[Frnb Ns]
+2.6 +0.9 89 +1 +1 1022.0 1014.3
21 23.04 Ю 1 4000 м слабый дождь 10/10 200 м
[Frnb Ns]
+2.1 +1.8 98 0 0 1021.9 1014.2 +2.0 0.8
00 24.04 штиль 0 2000 м слабый дождь 10/10 200 м
[Frnb Ns]
+3.3 +3.1 99 +2 +2 1022.2 1014.5
03 24.04 ЮВ 4 50 км {дождь} 3/3 300 м
[St]
+7.5 +4.1 79 +4 +12 1020.8 1013.2
06 24.04 В 2 4000 м дымка {дождь} 5/4 100 м
[St Ci fib]
+5.0 +3.4 89 +2 +8 1020.3 1012.6
09 24.04 В 2 2000 м дымка 10/4 100 м
[St As trans]
+2.6 +2.0 96 -1 -1 1020.2 1012.4 +7.9 3
12 24.04 В 1 1000 м дымка {ливн. осадки} 10/10 100 м
[St]
+3.2 +2.9 98 +1 +1 1020.7 1013.0
15 24.04 ЮВ 1 1000 м слабый дождь 10/10 100 м
[Frnb Ns]
+3.4 +3.2 99 +2 +2 1019.9 1012.1
18 24.04 В 2 1000 м дымка {дождь} 10/10 100 м
[St]
+3.2 +3.1 99 -0 -0 1018.8 1011.1
21 24.04 СВ 1 4000 м дымка {дождь} 10/10 200 м
[St]
+3.6 +2.9 95 +2 +2 1017.6 1009.9 +2.0 0.4
00 25.04 СВ 3 10 км морось {дождь} 10/10 200 м
[St]
+3.7 +3.3 97 -0 -0 1015.7 1008.0
03 25.04 В 2
{11}
10 км слабый дождь {морось} 10/10 200 м
[Frnb Ns]
+4.4 +3.6 95 +1 +1 1012.8 1005.2
06 25.04 ЮВ 2 50 км {дождь, морось} 8/8 600 м
[Sc]
+6.3 +4.6 89 +4 +6 1011.0 1003.4
09 25.04 В 1 50 км 3/3 600 м
[Sc]
+3.6 +2.6 93 +2 +2 1011.3 1003.6 +7.9 2
12 25.04 З 3 4000 м дымка {ливн. осадки} 10/10 100 м
[St]
+2.9 +2.5 97 -1 -1 1012.8 1005.1
15 25.04 З 2 4000 м дымка 4/4 100 м
[St]
+2.0 +1.9 99 -2 -2 1012.4 1004.6
18 25.04 СЗ 3 20 км 3/3 200 м
[St]
+2.8 +1.3 90 -1 -1 1011.2 1003.5
21 25.04 С 2 50 км 8/8 600 м
[Sc]
+1.6 +0.6 93 -2 -2 1010.3 1002.6 +1.1 0.3
00 26.04 С 2 50 км 3/3 600 м
[Sc]
+11.7 +2.0 51 +11 +18 1008.4 1001.0
03 26.04 ЮВ 3 50 км 8/8 600 м
[Sc diur, vesp]
+10.6 +1.2 52 +9 +12 1007.1 999.7
06 26.04 Ю 4 50 км {ливн. осадки} 8/8 600 м
[Sc diur, vesp]
+12.3 -1.0 40 +11 +12 1004.9 997.5
09 26.04 З 2
{14}
50 км {ливн. осадки} 10/4 600 м
[Sc diur, vesp As op]
+8.5 +2.1 64 +7 +7 1005.3 997.9 +13.2 0.0
12 26.04 З 4 20 км {ливн. осадки} ясно +5.9 +1.8 75 +2 +2 1004.7 997.1
15 26.04 З 4
{10}
20 км ясно +5.0 +0.5 73 +1 +1 1003.4 995.8
18 26.04 З 3 20 км ясно +3.2 -0.2 78 -1 -1 1002.2 994.6
21 26.04 С 2 50 км 8/8 600 м
[Sc]
+1.9 -0.2 86 1001.3 993.4
00 27.04 ЮВ 3 50 км 8/4 600 м
[Sc As trans Ci fib]
+8.8 +2.2 63 +7 +10 1000.2 992.8
03 27.04 В 3 50 км {ливн. осадки} 9/9 200 м
[St]
+6.4 +1.7 72 +3 +5 1000.8 993.3
06 27.04 ЮВ 2 50 км в посл. час ливневой дождь 6/3 600 м
[Sc Ac As]
+4.9 +2.5 84 +2 +7 1000.8 993.3
09 27.04 ЮВ 1 50 км {ливн. осадки} 8/8 600 м
[Sc diur, vesp]
+3.4 +0.9 84 +2 +2 1001.1 993.5 +9.8 0.6
12 27.04 ЮВ 1 20 км {ливн. осадки} ясно +0.6 -0.1 95 -2 -2 1001.9 994.3
15 27.04 штиль 0 500 м туман ?/? +0.4 +0.1 98 -1 -1 1002.2 994.5
18 27.04 З 1 500 м туман ?/? +0.4 +0.3 99 -2 -2 1001.1 993.4
21 27.04 З 2 50 км {туман} 8/5 200 м
[St Ac trans]
+1.0 +0.9 99 -3 -2 1000.7 993.1 -0.4
00 28.04 С 1 50 км {туман} 8/4 600 м
[Sc Ac trans]
+9.1 +3.0 66 +9 +13 1000.1 992.7
03 28.04 СВ 1 50 км 9/6 200 м
[St Ac As]
+5.8 +1.8 75 +5 +9 1000.0 992.5
06 28.04 С 1 20 км слабый ливневой дождь 8/8 600 м
[Cb cap]
+6.3 +4.0 85 +5 +7 999.3 991.8
09 28.04 ЮВ 1 50 км {ливн. осадки} 6/3 600 м
[Sc diur, vesp Ci]
+5.5 +2.7 82 +4 +5 998.9 991.4 +11.3 0.5
12 28.04 штиль 0 20 км {ливн. осадки} 8/3 200 м
[St Ac As]
+3.0 +2.5 97 +2 +2 1000.4 992.8
15 28.04 Ю 1 1000 м дымка 10/10 100 м
[St]
+1.8 +1.6 99 -0 -0 1000.6 993.0
18 28.04 З 2 20 км 3/3 200 м
[St]
+1.1 +1.0 99 -3 -3 1000.0 992.4
21 28.04 СЗ 3 50 км 1/1 200 м
[St]
+0.7 +0.6 99 -4 -3 1000.3 992.6 0.0
00 29.04 ЮВ 3 50 км 8/1 200 м
[St Ac As]
+7.2 +2.9 74 +4 +8 999.7 992.2
03 29.04 В 5
{10}
50 км 6/0
[Ac As Cs]
+7.0 +3.0 76 +3 +10 998.5 991.0
06 29.04 В 3 50 км 10/3 600 м
[Sc Ac und]
+7.1 +3.0 75 +4 +6 997.8 990.3
09 29.04 ЮВ 1 50 км 10/0
[As trans]
+5.0 +3.1 88 +4 +4 997.6 990.1 +9.5
12 29.04 СЗ 2 20 км 10/0
[As op]
+4.6 +3.5 93 +2 +2 998.0 990.5
15 29.04 ЮВ 2 20 км 10/0
[As op]
+4.5 +3.4 93 +2 +2 998.7 991.2
18 29.04 ЮВ 3 10 км слабый ливневой дождь 10/10 600 м
[Cb cap]
+4.3 +3.4 94 0 0 997.1 989.6
21 29.04 ЮВ 1 20 км слабый ливневой дождь 10/10 300 м
[Cb cap]
+3.8 +3.1 95 +2 +2 996.2 988.7 +3.5 0.4
00 30.04 ЮВ 1 50 км {ливн. осадки} 10/10 300 м
[St]
+4.8 +3.4 91 +3 +3 995.4 987.9

 

Местоположение метеостанции Терней (Приморский край, Россия): широта 45.00 долгота 136.60 высота над уровнем моря 62 м.

В архиве по умолчанию представлена погода в Тернее за последнюю неделю. Архивные данные за месяц целиком и за предыдущие месяцы, начиная с января 2011 года, Вы можете получить, выбрав интересующий диапазон дат из раскрывающегося списка и нажав кнопку "Ввод!".

Внимание! Время в таблицах - всемирное. Для получения местного времени необходимо прибавить поправку, которая в Тернее равна 10 ч.

Смотрите также архив погоды в соседних городах и на ближайших метеорологических станциях:

Погода в Малой Кеме (Приморский край, Россия) (59 км)
Погода в Рудной Пристани (Приморский край, Россия) (94 км)
Погода в Мельничном (Приморский край, Россия) (100 км)
Погода в Богополе (Приморский край, Россия) (126 км)
Погода в Кавалерово (Приморский край, Россия) (152 км)
Погода в Глубинном (Приморский край, Россия) (156 км)
Погода в Охотничем (Приморский край, Россия) (171 км)
Погода в Ольге (Приморский край, Россия) (173 км)
Погода в Малиново (Приморский край, Россия) (194 км)
Погода в Красном Яре (Приморский край, Россия) (198 км)

Пояснения к столбцам:

Ветер - указаны скорость ветра в м/с - средняя за 10 мин, порывы в срок и между сроками (в фигурных скобках) и направление, откуда дует ветер: С - северный, СВ - северо-восточный, В - восточный, ЮВ - юго-восточный, Ю - южный, ЮЗ - юго-западный, З - западный, СЗ - северо-западный.
Видимость - горизонтальная дальность видимости в метрах или километрах. При видимости от 1 до 10 км при отсутствии осадков обычно наблюдается дымка, при ухудшении видимости до 1 км и менее - туман. В сухую погоду видимость может ухудшаться дымом, пылью или мглою.
Явления - указаны атмосферные явления, наблюдавшиеся в срок или в последний час перед сроком; фигурными скобками обозначены явления, наблюдавшиеся между сроками (за 1-3 часа до срока); квадратными скобками обозначены град или гололедные отложения с указанием их диаметра в мм.
Облачность - указаны через наклонную черту общая и нижняя облачность в баллах и высота нижней границы облаков в метрах; квадратными скобками обозначены формы облаков: Ci - перистые, Cs - перисто-слоистые, Cc - перисто-кучевые, Ac - высококучевые, As - высокослоистые, Sc - слоисто-кучевые, Ns - слоисто-дождевые, Cu - кучевые, Cb - кучево-дождевые. Подробнее классификацию облаков см. в Атласе облаков (PDF).
T - Температура воздуха - температура, измеренная на высоте 2 м над землей.
Td - Температура точки росы - температура, при понижении до которой содержащийся в воздухе водяной пар достигнет насыщения.
f - Относительная влажность воздуха - влажноcть воздуха, измеренная на высоте 2 м над землей.
Te - Эффективная температура - температура, которую ощущает одетый по сезону человек в тени. Характеристика душности погоды. При расчете учитывается влияние влажности воздуха и скорости ветра на теплоощущения человека.
Tes - Эффективная температура на солнце - температура, которую ощущает человек, с поправкой на солнечный нагрев. Характеристика знойности погоды. Зависит от высоты солнца над горизонтом, облачности и скорости ветра. Ночью, в пасмурную погоду, а также при ветре 12 м/с и более поправка равна нулю.
P - Атмосферное давление - приведенное к уровню моря атмосферное давление.
Po - Атмосферное давление - измеренное на уровне метеостанции атмосферное давление.
Tmin - Минимальная температура - минимум температуры воздуха на высоте 2 м над землей.
Tmax - Максимальная температура - максимум температуры воздуха на высоте 2 м над землей.
R - Количество осадков - Количество выпавших осадков за период времени, мм. При наведении курсора мыши на число - период времени, за который выпало указанное количество осадков.
R24 - Количество осадков - Количество выпавших осадков за 24 часа, мм.
S - Снежный покров - Высота снежного покрова, см. При наведении курсора мыши на число - состояние снежного покрова и степень покрытия местности в баллах.